(123981) = 1998 UZ1 = 2001 FJ42

Discovered at Socorro on 2001-03-18 by LINEAR.

Orbit

Orbit type: Main Belt

Note: WebGL enabled browser required.

epoch2023-09-13.0
epoch JD2460200.5
perihelion date2022-12-05.40958
perihelion JD2459918.90958
argument of perihelion (°)196.84657
ascending node (°)359.72591
inclination (°)7.89263
eccentricity0.0429522
perihelion distance (AU)2.9420156
Tisserand w.r.t. Jupiter3.2
ΔV w.r.t. Earth (km/sec)10.9
semimajor axis (AU)3.0740531
mean anomaly (°)51.49377
mean daily motion (°/day)0.18286760
aphelion distance (AU)3.206
period (years)5.39
P-vector [x]-0.95844656
P-vector [y]-0.24334295
P-vector [z]-0.14887713
Q-vector [x]0.28527138
Q-vector [y]-0.81877402
Q-vector [z]-0.49822620
absolute magnitude15.17
phase slope0.15
uncertainty0
referenceMPEC 2024-A34
observations used699
oppositions18
arc length (days)22913
first opposition used1960
last opposition used2023
residual rms (arc-secs)0.67
perturbers coarse indicatorM-v
perturbers precise indicator003Ek
first observation date used1960-09-24.0
last observation date used2023-06-19.0
computer nameMPCLINUX
JD of orbit computation2456966.822769
perihelion JD uncertainty (days)2.5140E-04
argument of perihelion uncertainty (°)5.1250E-05
ascending node uncertainty (°)2.4365E-05
inclination uncertainty (°)6.8817E-06
eccentricity uncertainty 6.0321E-08
perihelion distance uncertainty (AU)1.8615E-07
Minimum Orbit Intersection Distances (in AU)
for orbit epoch: 2460200.5, reference: E2024-A34
Mercury2.50769
Venus2.22465
Earth1.94078
Mars1.29354
Jupiter1.75589
Saturn5.98688
Uranus15.4847
Neptune26.6472

Observations

711 total observations over interval: 1960 09 24.38750 – 2023 06 19.310368
These data are available for download (format description).

Date (UT) J2000 RA J2000 Dec Magn Location Ref
1960 09 24.38750 00 26 29.95 +03 54 39.8 20.3   675 – Palomar Mountain MPS 285387
1960 09 24.41180 00 26 28.85 +03 54 37.0 20.8   675 – Palomar Mountain MPS 285387
1960 09 26.31528 00 24 57.32 +03 48 59.4 21.1   675 – Palomar Mountain MPS 285387
1960 09 26.33541 00 24 56.31 +03 48 56.3 20.1   675 – Palomar Mountain MPS 285387
1960 09 27.37500 00 24 06.10 +03 45 49.1 18.5 V 675 – Palomar Mountain MPS 285387
1960 09 27.40833 00 24 04.42 +03 45 43.2 19.2 V 675 – Palomar Mountain MPS 285387
1960 10 26.30417 00 03 26.84 +02 28 37.0 20.6   675 – Palomar Mountain MPS 285387
1960 10 26.32570 00 03 26.13 +02 28 34.6 20.2   675 – Palomar Mountain MPS 285387
1998 10 19.91749 01 22 54.51 +13 57 06.4 20.2 V 910 – Caussols-ODAS MPS 2878
1998 10 19.96425 01 22 52.15 +13 56 58.3 20.3 V 910 – Caussols-ODAS MPS 2878
1998 10 20.01489 01 22 49.52 +13 56 49.4 20.7 V 910 – Caussols-ODAS MPS 2878
1998 10 20.93266 01 22 03.96 +13 54 03.9 20.2 V 910 – Caussols-ODAS MPS 2878
1998 10 20.95572 01 22 02.81 +13 54 00.2 20.2 V 910 – Caussols-ODAS MPS 2878
1998 10 20.97916 01 22 01.58 +13 53 55.9 20.3 V 910 – Caussols-ODAS MPS 2878
2001 03 18.30854 12 28 12.00 -04 03 40.4 18.5   704 – Lincoln Laboratory ETS, New Mexico MPS 28314
2001 03 18.32179 12 28 11.25 -04 03 39.5 18.7   704 – Lincoln Laboratory ETS, New Mexico MPS 28314
2001 03 18.34831 12 28 09.95 -04 03 35.1 19.3   704 – Lincoln Laboratory ETS, New Mexico MPS 28314
2001 03 19.25629 12 27 26.32 -04 01 22.0 18.7 R 699 – Lowell Observatory-LONEOS MPS 28314
2001 03 19.29293 12 27 24.49 -04 01 16.6   699 – Lowell Observatory-LONEOS MPS 28314
2001 03 19.32964 12 27 22.69 -04 01 11.1   699 – Lowell Observatory-LONEOS MPS 28314
2001 03 19.36645 12 27 20.91 -04 01 05.7   699 – Lowell Observatory-LONEOS MPS 28314
2001 03 21.40143 12 25 41.52 -03 55 57.9 19.8   608 – Haleakala-AMOS MPS 28314
2001 03 21.41174 12 25 41.00 -03 55 56.4 19.8   608 – Haleakala-AMOS MPS 28314
2001 03 21.42256 12 25 40.45 -03 55 54.2 19.7   608 – Haleakala-AMOS MPS 28314
2001 03 24.30700 12 23 17.42 -03 48 17.9 18.5   704 – Lincoln Laboratory ETS, New Mexico MPS 28314
2001 03 24.32023 12 23 16.79 -03 48 17.6 18.8   704 – Lincoln Laboratory ETS, New Mexico MPS 28314
2001 03 24.33331 12 23 16.14 -03 48 14.8 19.1   704 – Lincoln Laboratory ETS, New Mexico MPS 28314
2001 03 24.34643 12 23 15.36 -03 48 12.8 18.7   704 – Lincoln Laboratory ETS, New Mexico MPS 28314
2001 03 24.35949 12 23 14.75 -03 48 10.4 19.2   704 – Lincoln Laboratory ETS, New Mexico MPS 28314
2001 03 28.31469 12 19 57.10 -03 37 27.3 19.5 V 691 – Steward Observatory, Kitt Peak-Spacewatch MPS 28314
2001 03 28.34177 12 19 55.72 -03 37 23.5 19.4 V 691 – Steward Observatory, Kitt Peak-Spacewatch MPS 28314
2001 03 28.36865 12 19 54.32 -03 37 18.4 19.5 V 691 – Steward Observatory, Kitt Peak-Spacewatch MPS 28314
2001 03 29.23733 12 19 11.23 -03 34 57.0 18.5 R 699 – Lowell Observatory-LONEOS MPS 28314
2001 03 29.26541 12 19 09.76 -03 34 49.9   699 – Lowell Observatory-LONEOS MPS 28314
2001 03 29.29347 12 19 08.31 -03 34 46.9   699 – Lowell Observatory-LONEOS MPS 28314
2001 03 29.32157 12 19 06.90 -03 34 42.0   699 – Lowell Observatory-LONEOS MPS 28314
2001 04 01.26423 12 16 41.10 -03 26 37.5 18.8   704 – Lincoln Laboratory ETS, New Mexico MPS 28314
2001 04 01.27864 12 16 40.33 -03 26 35.9 19.1   704 – Lincoln Laboratory ETS, New Mexico MPS 28314
2001 04 01.32201 12 16 38.08 -03 26 27.8 19.6   704 – Lincoln Laboratory ETS, New Mexico MPS 28314
2001 04 14.12230 12 06 50.01 -02 54 02.6 20.7 V 691 – Steward Observatory, Kitt Peak-Spacewatch MPS 29568
2001 04 14.14833 12 06 48.91 -02 53 59.1 19.7 V 691 – Steward Observatory, Kitt Peak-Spacewatch MPS 29568
2001 04 14.17351 12 06 47.83 -02 53 55.9 19.8 V 691 – Steward Observatory, Kitt Peak-Spacewatch MPS 29568
2003 08 22.44808 00 05 27.35 -01 19 25.7 19.5   644 – Palomar Mountain/NEAT MPS 83314
2003 08 22.45969 00 05 26.97 -01 19 27.2 19.5   644 – Palomar Mountain/NEAT MPS 83314
2003 08 22.47185 00 05 26.56 -01 19 28.4 19.5   644 – Palomar Mountain/NEAT MPS 83314
2003 08 26.29931 00 03 15.91 -01 26 36.6 18.8 R 807 – Cerro Tololo Observatory, La Serena MPS 84009
2003 08 26.40384 00 03 12.02 -01 26 49.5   807 – Cerro Tololo Observatory, La Serena MPS 84009
2003 09 17.23256 23 47 18.66 -02 24 47.8 19.9 V 691 – Steward Observatory, Kitt Peak-Spacewatch MPS 84508
2003 09 17.25957 23 47 17.34 -02 24 52.7 19.7 V 691 – Steward Observatory, Kitt Peak-Spacewatch MPS 84508
2003 09 17.28684 23 47 15.97 -02 24 57.5 19.6 V 691 – Steward Observatory, Kitt Peak-Spacewatch MPS 84508
2003 09 22.23980 23 43 17.54 -02 39 32.0 19.0 R 699 – Lowell Observatory-LONEOS MPS 85161
2003 09 22.25978 23 43 16.53 -02 39 34.6   699 – Lowell Observatory-LONEOS MPS 85161
2003 09 22.27981 23 43 15.62 -02 39 38.7   699 – Lowell Observatory-LONEOS MPS 85161
2003 09 22.29967 23 43 14.61 -02 39 41.8   699 – Lowell Observatory-LONEOS MPS 85161
2003 09 26.22632 23 40 07.89 -02 50 53.4 19.3   704 – Lincoln Laboratory ETS, New Mexico MPS 86169
2003 09 26.23885 23 40 07.32 -02 50 55.3 19.8   704 – Lincoln Laboratory ETS, New Mexico MPS 86169
2003 09 26.25141 23 40 06.71 -02 50 57.0 19.5   704 – Lincoln Laboratory ETS, New Mexico MPS 86169
2003 09 26.26416 23 40 06.23 -02 50 59.1 19.6   704 – Lincoln Laboratory ETS, New Mexico MPS 86169
2003 09 27.21955 23 39 21.44 -02 53 37.9 19.8 V 691 – Steward Observatory, Kitt Peak-Spacewatch MPS 86169
2003 09 27.24889 23 39 19.98 -02 53 42.9 20.0 V 691 – Steward Observatory, Kitt Peak-Spacewatch MPS 86169
2003 09 27.28195 23 39 18.43 -02 53 48.1 19.9 V 691 – Steward Observatory, Kitt Peak-Spacewatch MPS 86169
2003 09 29.22575 23 37 48.76 -02 59 02.4 19.8   704 – Lincoln Laboratory ETS, New Mexico MPS 86169
2003 09 29.23855 23 37 48.02 -02 59 04.7 19.8   704 – Lincoln Laboratory ETS, New Mexico MPS 86169
2003 09 29.25136 23 37 47.40 -02 59 06.5 19.5   704 – Lincoln Laboratory ETS, New Mexico MPS 86169
2003 09 29.26433 23 37 46.86 -02 59 08.2 19.6   704 – Lincoln Laboratory ETS, New Mexico MPS 86169
2003 09 29.27672 23 37 46.24 -02 59 11.1 19.6   704 – Lincoln Laboratory ETS, New Mexico MPS 86169
2003 10 23.20574 23 23 12.65 -03 40 43.0 20.0   704 – Lincoln Laboratory ETS, New Mexico MPS 87916
2003 10 23.23042 23 23 12.00 -03 40 43.8 19.8   704 – Lincoln Laboratory ETS, New Mexico MPS 87916
2003 10 23.24283 23 23 11.60 -03 40 44.8 20.4   704 – Lincoln Laboratory ETS, New Mexico MPS 87916
2003 10 23.25509 23 23 11.35 -03 40 45.0 19.4   704 – Lincoln Laboratory ETS, New Mexico MPS 87916
2004 12 14.29267 04 17 16.07 +32 20 38.3 19.6 R 703 – Catalina Sky Survey MPS 121674
2004 12 14.29911 04 17 15.65 +32 20 37.8 19.1 R 703 – Catalina Sky Survey MPS 121674
2004 12 14.30556 04 17 15.35 +32 20 36.3 19.6 R 703 – Catalina Sky Survey MPS 121674
2004 12 14.31198 04 17 15.02 +32 20 35.7 19.3 R 703 – Catalina Sky Survey MPS 121674
2004 12 15.33639 04 16 20.60 +32 18 01.0 19.3 R 703 – Catalina Sky Survey MPS 121674
2004 12 15.34518 04 16 20.13 +32 17 59.0 19.8 R 703 – Catalina Sky Survey MPS 121674
2004 12 15.35392 04 16 19.71 +32 17 58.3 19.4 R 703 – Catalina Sky Survey MPS 121674
2004 12 15.36267 04 16 19.17 +32 17 57.9 18.9 R 703 – Catalina Sky Survey MPS 121674
2006 01 23.35330 10 44 50.39 +14 35 54.9 19.9 V 691 – Steward Observatory, Kitt Peak-Spacewatch MPS 160240
2006 01 23.37063 10 44 49.87 +14 35 57.6 20.1 V 691 – Steward Observatory, Kitt Peak-Spacewatch MPS 160240
2006 01 23.38798 10 44 49.32 +14 36 00.0 20.1 V 691 – Steward Observatory, Kitt Peak-Spacewatch MPS 160240
2006 01 31.408946 10 40 16.661 +14 57 17.69 19.92 V 645 – Apache Point-Sloan Digital Sky Survey MPS 389919
2006 01 31.412418 10 40 16.518 +14 57 18.15 20.76   645 – Apache Point-Sloan Digital Sky Survey MPS 389919
2006 02 01.33141 10 39 40.56 +14 59 59.0 19.8 V 691 – Steward Observatory, Kitt Peak-Spacewatch MPS 161628
2006 02 01.34870 10 39 39.87 +15 00 01.7 19.8 V 691 – Steward Observatory, Kitt Peak-Spacewatch MPS 161628
2006 02 01.36597 10 39 39.14 +15 00 04.9 19.9 V 691 – Steward Observatory, Kitt Peak-Spacewatch MPS 161628
2006 02 21.27134 10 23 52.39 +15 59 23.3 19.0 R 699 – Lowell Observatory-LONEOS MPS 163626
